#timestamp,LO_Frequency,Hit,StdDev 
1633550415.1,286046998.9,N
1633550416.0,286046998.9,N
1633550435.8,286047000.9,N
1633550455.6,286047000.1,N
1633550475.5,286046998.5,N
1633550495.3,286047000.4,N
1633550515.2,286047002.7,N
1633550535.9,286047002.3,N
1633550555.7,286047000.4,N
1633550575.6,286046998.5,N
1633550595.4,286046998.2,N
1633550615.2,286046998.1,N
1633550635.1,286046998.9,N
1633550636.0,286046998.9,N
1633550655.8,286046997.0,N
1633550675.7,286046998.7,N
1633550695.5,286046996.5,N
1633550715.3,286046997.5,N
1633550735.2,286046995.3,N
1633550755.0,286046994.5,Y
1633550755.9,286046994.5,P
1633550775.8,286046995.9,N
1633550795.6,286046995.8,N
1633550815.4,286046996.2,N
1633550835.3,286046996.4,N
1633550855.1,286046995.5,Y
1633550875.8,286047002.4,P
1633550895.7,286047001.3,N
1633550915.5,286047004.1,N
1633550935.4,286047003.5,N
1633550955.2,286047004.1,N
1633550975.0,286047003.5,N
1633550975.9,286047003.5,N
1633550995.8,286047003.6,N
1633551015.6,286047005.8,N
1633551035.4,286047003.3,N
1633551055.3,286047003.4,N
1633551075.1,286047006.8,Y
1633551095.9,286047003.8,P
1633551115.7,286047004.1,P
1633551135.5,286047001.8,P
1633551155.4,286047002.5,N
1633551175.2,286046998.1,N
1633551195.1,286047000.9,N
1633551196.0,286047000.9,N
1633551215.8,286047002.3,N
1633551235.6,286047001.8,N
1633551255.5,286047004.1,N
1633551275.3,286047003.2,N
1633551295.1,286047003.5,N
1633551315.9,286047003.5,N
1633551335.7,286047005.8,Y
1633551355.6,286047001.7,P
1633551375.4,286047000.2,N
1633551395.2,286046999.8,N
1633551415.1,286046999.7,N
1633551416.0,286046999.7,N
1633551435.8,286047002.3,N
1633551455.6,286047002.5,N
1633551475.5,286047004.0,Y
1633551495.3,286047002.7,P
1633551515.2,286047001.4,N
1633551535.0,286047001.8,N
1633551535.9,286047001.8,N
1633551555.7,286047002.5,Y
1633551575.6,286047002.7,P
1633551595.4,286047002.5,P
1633551615.3,286047000.9,N
1633551635.1,286047001.1,N
1633551636.0,286047001.1,N
1633551655.8,286046998.2,N
1633551675.7,286047000.8,N
1633551695.5,286047001.1,N
1633551715.3,286046998.1,N
1633551735.2,286046998.5,N
1633551755.0,286047000.8,N
1633551755.9,286047000.8,N
1633551775.8,286047000.8,N
1633551795.6,286046998.2,N
1633551815.4,286047000.5,N
1633551835.3,286047002.4,N
1633551855.1,286047002.3,N
1633551875.9,286047001.8,N
1633551895.7,286047001.4,N
1633551915.5,286047001.3,N
1633551935.4,286047001.9,N
1633551955.2,286047002.4,N
1633551975.0,286047000.1,N
1633551975.9,286047000.1,N
1633551995.8,286047000.0,N
1633552015.6,286046999.7,N
1633552035.5,286047001.8,N
1633552055.3,286047001.3,N
1633552075.1,286047004.2,Y
1633552095.9,286047002.4,P
1633552115.7,286046999.7,N
1633552135.5,286047002.3,N
1633552155.4,286047002.0,N
1633552175.2,286047002.4,N
1633552195.1,286047000.2,N
1633552196.0,286047000.2,N
1633552215.8,286047001.0,N
1633552235.6,286047000.3,N
1633552255.5,286046998.6,N
1633552275.3,286046999.4,N
1633552295.2,286046998.8,N
1633552315.9,286046998.7,N
1633552335.7,286047000.0,N
1633552355.6,286046999.1,N
1633552375.4,286046998.1,N
1633552395.2,286046999.7,N
1633552415.1,286047000.9,N
1633552416.0,286047000.9,N
1633552435.8,286047001.1,N
1633552455.7,286046999.5,N
1633552475.5,286046997.6,N
1633552495.3,286046997.0,N
1633552515.2,286046999.4,N
1633552535.0,286046998.2,N
1633552535.9,286046998.2,N
1633552555.8,286047000.3,N
1633552575.6,286047002.0,N
1633552595.4,286047002.3,N
1633552615.3,286047001.9,N
1633552635.1,286047000.9,N
1633552655.8,286047000.5,N
1633552675.7,286047000.4,N
1633552695.5,286047002.4,N
1633552715.4,286047004.4,Y
1633552735.2,286047003.3,P
1633552755.0,286047002.9,N
1633552755.9,286047002.9,N
1633552775.8,286047005.9,Y
1633552795.6,286047001.6,P
1633552815.5,286047002.2,P
1633552835.3,286046999.3,N
1633552855.1,286046998.7,N
1633552875.9,286047001.1,N
1633552895.7,286046998.6,N
1633552915.5,286046998.8,N
1633552935.4,286047000.2,N
1633552955.2,286047001.3,N
1633552975.1,286047002.5,N
1633552976.0,286047002.5,N
1633552995.8,286047000.2,N
1633553015.6,286047002.3,N
1633553035.5,286047002.2,N
1633553055.3,286047001.9,N
1633553075.2,286047001.5,N
1633553095.9,286047001.9,N
1633553115.7,286047001.7,N
1633553135.6,286047004.0,N
1633553155.4,286047001.6,N
1633553175.2,286047001.7,N
1633553195.1,286047001.5,N
1633553196.0,286047001.5,N
1633553215.8,286047001.8,N
1633553235.7,286047001.8,N
1633553255.5,286047001.4,N
1633553275.3,286047001.4,N
1633553295.2,286047000.5,N
1633553315.0,286046999.8,N
1633553315.9,286046999.8,N
1633553335.7,286047000.2,N
1633553355.6,286047001.6,N
1633553375.4,286047002.5,N
1633553395.3,286047001.7,N
1633553415.1,286047001.4,N
1633553435.8,286047001.5,N
1633553455.7,286047001.7,N
1633553475.5,286047000.0,N
1633553495.4,286047000.0,N
1633553515.2,286046998.9,N
1633553535.0,286046998.7,N
1633553535.9,286046998.7,N
1633553555.8,286047000.4,N
1633553575.6,286047000.9,N
1633553595.5,286047000.9,N
1633553615.3,286046999.4,N
1633553635.1,286046998.9,N
1633553655.9,286046999.4,N
1633553675.7,286046997.3,N
1633553695.5,286046997.2,N
1633553715.4,286046999.5,N
1633553735.2,286046998.7,N
1633553755.1,286046998.1,N
1633553756.0,286046998.1,N
1633553775.8,286046998.6,N
1633553795.6,286046998.5,N
1633553815.5,286047000.2,N
1633553835.3,286047001.8,N
1633553855.1,286047003.8,N
1633553875.9,286047001.4,N
1633553895.7,286047001.6,N
1633553915.6,286047004.4,N
1633553935.4,286047002.1,N
1633553955.2,286047001.5,N
1633553975.1,286047002.6,N
1633553976.0,286047002.6,N
1633553995.8,286047002.0,N
